This demonstration page uses our WeatherBlox Daily Observations layout. Learn more.

Left ArrowRight Arrow

Hourly Observations for February 6, 2016

Temp ( °F °C ) Dew Point ( °F °C ) Humidity (%) Winds ( mph kmh ) Pressure ( in mb ) Visibility ( mi km ) Precip ( " mm )
12:51 am 00:51 Clear 45 7.2 9 -12.8 23 23 ESE 12 19 30.37 1029 10 16.0934 N/A
1:51 am 01:51 Clear 44 6.7 9 -12.8 24 24 E 8 13 30.38 1029 10 16.0934 N/A
2:51 am 02:51 Clear 40 4.4 11 -11.7 30 30 ESE 12 19 30.4 1029 10 16.0934 N/A
3:51 am 03:51 Clear 38 3.3 12 -11.1 34 34 ESE 12 19 30.39 1029 10 16.0934 N/A
4:51 am 04:51 Clear 35 1.7 12 -11.1 38 38 ESE 5 7 30.39 1029 10 16.0934 N/A
5:51 am 05:51 Clear 37 2.8 11 -11.7 34 34 E 10 17 30.37 1029 10 16.0934 N/A
6:51 am 06:51 Clear 33 0.6 12 -11.1 42 42 N N/A 30.42 1030 10 16.0934 N/A
7:51 am 07:51 Sunny 37 2.8 12 -11.1 36 36 ESE 9 15 30.44 1031 10 16.0934 N/A
8:51 am 08:51 Sunny 40 4.4 12 -11.1 32 32 SSE 14 22 30.45 1031 10 16.0934 N/A
9:51 am 09:51 Sunny 47 8.3 10 -12.2 22 22 SE 14 22 30.45 1031 10 16.0934 N/A
10:51 am 10:51 Sunny 51 10.6 10 -12.2 19 19 E 9 15 30.41 1030 10 16.0934 N/A
11:51 am 11:51 Sunny 54 12.2 12 -11.1 19 19 SE 9 15 30.38 1029 10 16.0934 N/A
12:51 pm 12:51 Sunny 57 13.9 9 -12.8 15 15 S 10 17 30.33 1027 10 16.0934 N/A
1:51 pm 13:51 Sunny 59 15 9 -12.8 13 13 S 8 13 30.28 1025 10 16.0934 N/A
2:51 pm 14:51 Sunny 63 17.2 7 -13.9 11 11 ESE 9 15 30.23 1024 10 16.0934 N/A
3:51 pm 15:51 Sunny 63 17.2 6 -14.4 10 10 SE 8 13 30.22 1023 10 16.0934 N/A
4:51 pm 16:51 Sunny 63 17.2 4 -15.6 9 9 SE 9 15 30.22 1023 10 16.0934 N/A
5:51 pm 17:51 Sunny 58 14.4 9 -12.8 14 14 S 3 6 30.22 1023 10 16.0934 N/A
6:51 pm 18:51 Clear 49 9.4 12 -11.1 22 22 undefined N/A 30.26 1025 10 16.0934 N/A
7:51 pm 19:51 Clear 47 8.3 12 -11.1 24 24 SE 6 9 30.26 1025 10 16.0934 N/A
8:51 pm 20:51 Clear 41 5 14 -10 33 33 E 5 7 30.27 1025 10 16.0934 N/A
9:51 pm 21:51 Clear 42 5.6 14 -10 32 32 SE 7 11 30.26 1025 10 16.0934 N/A
10:51 pm 22:51 Clear 36 2.2 15 -9.4 42 42 N N/A 30.27 1025 10 16.0934 N/A
11:51 pm 23:51 Clear 35 1.7 15 -9.4 44 44 ESE 3 6 30.26 1025 10 16.0934 N/A

Powered by AerisWeather